Location: Dattensoll
(49.9928°N, 9.8954°E)
Time: 02:57:56
(UTC+00:00)

ISS - Pass Details

Date: 26 January 2026
Orbit: 413 x 429 km, 51.6° (Epoch: 10 February)

Event Time Altitude Azimuth Distance (km) Brightness Sun altitude
Rises 16:56:57 0° 286° (WNW) 2,363 1.1 -8.5°
Reaches altitude 10° 16:59:03 10° 286° (WNW) 1,500 0.0 -8.9°
Maximum altitude 17:02:25 86° 199° (SSW) 426 -3.7 -9.4°
Drops below altitude 10° 17:05:48 10° 109° (ESE) 1,505 -1.4 -9.9°
Enters shadow 17:05:54 10° 109° (ESE) 1,541 -1.4 -9.9°
